www.pogodaiklimat.ru

ПОГОДА на Базе ВВС Уилер Арми, HI

  • Прогноз погоды на Базе ВВС Уилер Арми
  • Монитор погоды на Базе ВВС Уилер Арми
  • Климат на Базе ВВС Уилер Арми

АРХИВ ПОГОДЫ на Базе ВВС Уилер Арми

Время (UTC), дата Ветер
(напр.,м/с)
 
Видим.   Явления Облачность Т
(С)
Тd
(С)
f
(%)
Тe
(С)
Тes
(С)
Комфортность

P
(гПа)

Po
(гПа)
Тmin
(С)
Tmax
(С)
R
(мм)
SD
(см)
09:42 20.07   16 км    8/8 300 м  +23.0  +22.0  94  +31  +31  очень
душно 
1015.1  985.8         
09:43 20.07 Ю  16 км  слабая морось  8/8 300 м  +23.0  +22.0  94  +31  +31  очень
душно 
1015.1  985.8         
09:53 20.07 Ю  10 км  слабый дождь, дымка  10/10 300 м  +23.0  +22.0  94  +31  +31  очень
душно 
1015.1  985.8         
09:56 20.07 Ю  10 км  слабый дождь, дымка  10/10 300 м  +22.9  +22.2  96  +31  +31  очень
душно 
1015.1  985.8         
10:06 20.07   10 км  дождь, дымка  10/10 270 м  +23.0  +22.0  94  +31  +31  очень
душно 
1014.7  985.4         
10:11 20.07   6 км  слабый дождь, дымка  10/10 240 м  +23.0  +23.0  100  +32  +32  очень
душно 
1014.6  985.4         
10:22 20.07   16 км    10/10 270 м  +23.0  +22.0  94  +31  +31  очень
душно 
1014.7  985.4         
10:24 20.07   16 км  слабый дождь  10/10 270 м  +23.0  +22.0  94  +31  +31  очень
душно 
1014.7  985.4         
10:39 20.07 С  16 км    10/10 480 м  +23.0  +23.0  100  +32  +32  очень
душно 
1014.4  985.1         
10:44 20.07 С  16 км    10/10 480 м  +23.0  +23.0  100  +32  +32  очень
душно 
1014.4  985.1         
10:52 20.07 С  16 км  слабая морось  8/8 420 м  +23.0  +23.0  100  +32  +32  очень
душно 
1014.4  985.1         
10:56 20.07 СВ  16 км  слабая морось  8/8 780 м  +22.9  +22.7  99  +31  +31  очень
душно 
1014.4  985.1  +22.4  +24.8     
11:04 20.07 СВ  16 км    8/8 630 м  +23.0  +23.0  100  +32  +32  очень
душно 
1014.4  985.1         
11:07 20.07 СВ  16 км  слабая морось  10/10 630 м  +23.0  +23.0  100  +32  +32  очень
душно 
1014.4  985.1         
11:49 20.07   16 км    10/10 720 м  +23.0  +22.0  94  +31  +31  очень
душно 
1014.0  984.8         
11:50 20.07   16 км  слабая морось  10/10 720 м  +23.0  +22.0  94  +31  +31  очень
душно 
1014.0  984.8         
11:56 20.07   16 км  слабая морось  10/10 810 м  +23.3  +22.1  93  +32  +32  очень
душно 
1014.1  984.8         
11:57 20.07 СВ  16 км    10/10 810 м  +23.0  +22.0  94  +31  +31  очень
душно 
1014.1  984.8         
12:08 20.07   16 км  слабая морось  8/8 1140 м  +24.0  +22.0  89  +31  +31  очень
душно 
1014.0  984.8         
12:26 20.07   16 км    8/8 810 м  +23.0  +22.0  94  +31  +31  очень
душно 
1014.0  984.8         
12:56 20.07   16 км    10/10 810 м  +22.4  +22.2  99  +30  +30  очень
душно 
1013.7  984.5         
13:56 20.07 С  16 км    5/5 1110 м  +22.6  +20.5  88  +29  +29  очень
душно 
1014.1  984.8         
14:56 20.07 СЗ  16 км    ясно  +20.8  +19.4  92  +26  +26  душно  1014.2  984.8         
15:56 20.07   16 км    ясно  +21.7  +18.7  83  +27  +27  душно  1014.8  985.4         
16:56 20.07 В  16 км    5/5 930 м  +24.4  +19.2  73  +29  +30  душно  1015.2  985.8  +19.8  +24.6     
17:56 20.07 СВ  16 км    8/8 810 м  +25.1  +20.1  74  +31  +32  очень
душно 
1015.4  986.1         
18:56 20.07 В  16 км    2/2 1080 м  +27.2  +19.3  62  +33  +35  очень
душно 
1015.0  985.8         
19:56 20.07 СВ  4
{8} 
16 км    5/5 990 м  +27.7  +20.2  64  +34  +38  очень
душно 
1015.0  985.8         
20:56 20.07 В  16 км    10/10 930 м  +26.8  +20.8  70  +34  +34  очень
душно 
1015.1  985.8         
21:11 20.07 В  14 км    10/10 180 м  +26.0  +21.0  74  +33  +33  очень
душно 
1014.7  985.4         
21:56 20.07 СВ  16 км    8/8 510 м  +26.2  +21.6  76  +34  +35  очень
душно 
1014.8  985.4         
22:45 20.07 В  7
{8} 
16 км  слабый дождь  8/8 510 м  +27.0  +21.0  70  +34  +35  очень
душно 
1014.4  985.1         
22:56 20.07 СВ  16 км  слабый дождь  8/8 510 м  +26.9  +20.9  70  +34  +35  очень
душно 
1014.4  985.1  +24.5  +27.9     
22:57 20.07 В  16 км    8/8 510 м  +27.0  +21.0  70  +34  +35  очень
душно 
1014.4  985.1         
23:12 20.07 В  4
{9} 
16 км    10/10 810 м  +27.0  +21.0  70  +34  +34  очень
душно 
1014.4  985.1         
23:17 20.07 В  4
{9} 
16 км    10/10 780 м  +27.0  +21.0  70  +34  +34  очень
душно 
1014.1  984.8         
23:56 20.07 В  7
{9} 
16 км    10/10 750 м  +26.9  +20.9  70  +34  +34  очень
душно 
1013.7  984.5         
00:42 21.07 В  16 км    10/10 660 м  +27.0  +21.0  70  +34  +34  очень
душно 
1013.7  984.5         
00:52 21.07 В  6
{10} 
16 км    10/10 630 м  +26.0  +21.0  74  +33  +33  очень
душно 
1013.8  984.5         
00:56 21.07 СВ  5
{8} 
16 км    10/10 630 м  +26.4  +20.9  72  +33  +33  очень
душно 
1013.8  984.5         
01:01 21.07 В  5
{8} 
16 км    8/8 720 м  +26.0  +21.0  74  +33  +33  очень
душно 
1013.5  984.1         
01:26 21.07 В  16 км    5/5 630 м  +27.0  +21.0  70  +34  +36  очень
душно 
1013.4  984.1         
01:41 21.07 СВ  16 км    8/8 660 м  +27.0  +21.0  70  +34  +35  очень
душно 
1013.0  983.8         
01:46 21.07 СВ  16 км    8/8 660 м  +27.0  +21.0  70  +34  +35  очень
душно 
1013.0  983.8         
01:56 21.07 СВ  16 км    8/8 720 м  +26.8  +20.8  70  +34  +35  очень
душно 
1013.4  984.1         
02:26 21.07 СВ  6
{8} 
16 км    5/5 690 м  +27.0  +21.0  70  +34  +35  очень
душно 
1013.4  984.1         
02:56 21.07 СВ  16 км    ясно  +27.0  +19.6  64  +33  +34  очень
душно 
1013.5  984.1         
03:56 21.07 СВ  16 км    ясно  +25.6  +19.7  70  +31  +32  очень
душно 
1013.8  984.5         

 

Местоположение метеостанции Wheeler Air Force Base: широта 21.4833 долгота -158.0333 высота над уровнем моря 255 м.

В архиве по умолчанию представлена погода на Базе ВВС Уилер Арми за последние 1-2 суток. Обновление информации о фактической погоде в базе происходит ежечасно! Архивные данные за месяц целиком и за предыдущие месяцы Вы можете получить, выбрав интересующий диапазон дат из раскрывающегося списка и нажав кнопку "Ввод!".

Внимание! Архив погоды МЕТАР в базе сайта хранится не более 60 дней. Нет смысла пытаться выбрать более раннюю дату.

Внимание! Время в таблицах - всемирное. Для получения местного времени необходимо прибавить поправку, которая на Базе ВВС Уилер Арми равна -10 ч.

Ветер - указаны скорость ветра в м/с и направление, откуда дует ветер: С - северный, СВ - северо-восточный, В - восточный, ЮВ - юго-восточный, Ю - южный, ЮЗ - юго-западный, З - западный, СЗ - северо-западный.
Видимость - горизонтальная дальность видимости в метрах или километрах. При видимости от 1 до 10 км при отсутствии осадков обычно наблюдается дымка, при ухудшении видимости до 1 км и менее - туман. В сухую погоду видимость может ухудшаться дымом, пылью или мглою.
Атмосферные явления - указаны явления, наблюдавшиеся в указанный момент времени.
Облачность - указаны через наклонную черту верхняя и нижняя облачность в баллах и высота нижней границы облаков в метрах. Внимание: облачность, как и прочие метеорологические величины в США измеряются автоматическими метеостанциями. Указанные значения в баллах носят условный характер и показывают процент времени, в течение которого, в среднем, лазерный луч высотомера отражался от облаков обратно.
T - Температура воздуха - температура, измеренная на высоте 2 м над землей.
Td - Температура точки росы - температура, при понижении до которой содержащийся в воздухе водяной пар достигнет насыщения.
f - Относительная влажность воздуха - влажноcть воздуха, измеренная на высоте 2 м над землей.
Te - Эффективная температура - температура, которую ощущает одетый по сезону человек в тени. Характеристика душности погоды. При расчете учитывается влияние влажности воздуха и скорости ветра на теплоощущения человека.
Tes - Эффективная температура на солнце - температура, которую ощущает человек, с поправкой на солнечный нагрев. Характеристика знойности погоды. Зависит от высоты солнца над горизонтом, облачности и скорости ветра. Ночью, в пасмурную погоду, а также при ветре 12 м/с и более поправка равна нулю.
P - Атмосферное давление - приведенное к уровню моря атмосферное давление.
Po - Атмосферное давление - измеренное на уровне метеостанции атмосферное давление.
Tmin - Минимальная температура - минимум температуры воздуха на высоте 2 м над землей.
Tmax - Максимальная температура - максимум температуры воздуха на высоте 2 м над землей.
R - Количество осадков - Количество выпавших осадков за 3 или 6 часов, мм.
SD - Снежный покров - Высота снежного покрова, см.